GW0126 Weather Reports


Display with metric or nautical units.
time (UTC)temp
F
wind
direction
speed
MPH
gust
MPH
rain 1hr
in
rain 24hr
in
rain mn
in
humidity
%
barometer
mb
20260506132243 54 219 0.0 1.0 0.00 0.00 1.13 99 1007.2
20260506131811 53 217 0.0 1.0 0.00 0.00 1.13 99 1007.2
20260506131301 53 232 2.0 3.0 0.00 0.00 1.13 99 1007.1
20260506130713 53 257 1.0 1.0 0.00 0.00 1.13 99 1007.2
20260506130326 53 209 0.0 1.0 0.01 0.00 1.13 99 1007.0
20260506125221 53 273 2.0 2.0 0.01 0.00 1.13 99 1007.1
20260506124711 52 285 2.0 3.0 0.01 0.00 1.13 99 1006.9
20260506124122 52 237 1.0 2.0 0.01 0.00 1.13 99 1007.2
20260506123613 52 230 0.0 1.0 0.01 0.00 1.13 99 1006.9
20260506122552 52 234 0.0 2.0 0.01 0.00 1.13 99 1006.9
20260506121022 52 230 1.0 1.0 0.01 0.00 1.13 99 1006.9
20260506115452 52 285 0.0 3.0 0.00 0.00 1.12 99 1006.7
20260506114942 52 220 0.0 1.0 0.00 0.00 1.12 99 1006.7
20260506113413 52 216 0.0 0.0 0.00 0.00 1.12 99 1006.7
20260506112905 52 224 0.0 1.0 0.00 0.00 1.12 99 1006.6
20260506112352 52 216 0.0 0.0 0.00 0.00 1.12 99 1006.3
20260506111921 52 223 0.0 0.0 0.00 0.00 1.12 99 1006.3
20260506111412 52 98 2.0 3.0 0.00 0.00 1.12 99 1006.5
20260506110822 52 207 0.0 1.0 0.00 0.00 1.12 99 1006.5
20260506110354 52 223 0.0 1.0 0.00 0.00 1.12 99 1006.4
20260506105252 52 219 0.0 1.0 0.01 0.00 1.12 99 1006.1
20260506103722 52 220 0.0 1.0 0.02 0.00 1.12 99 1006.2
20260506103212 52 222 0.0 1.0 0.03 0.00 1.12 99 1006.3
20260506102702 52 220 0.0 0.0 0.04 0.00 1.12 99 1006.2
20260506102152 52 225 0.0 1.0 0.05 0.00 1.12 99 1006.0
20260506101642 52 207 0.0 1.0 0.06 0.00 1.12 99 1006.3
20260506101132 52 231 1.0 1.0 0.07 0.00 1.12 99 1005.8
20260506100622 51 227 0.0 2.0 0.07 0.00 1.12 99 1006.0
20260506095052 51 236 0.0 2.0 0.08 0.00 1.11 99 1005.8
20260506094542 51 214 1.0 1.0 0.09 0.00 1.11 99 1006.0
20260506094032 51 267 1.0 1.0 0.09 0.00 1.10 99 1005.8
20260506093051 51 253 0.0 2.0 0.09 0.00 1.08 99 1005.7
20260506091952 51 214 0.0 2.0 0.10 0.00 1.06 99 1005.5
20260506091442 51 217 0.0 2.0 0.10 0.00 1.05 99 1005.7
20260506091010 51 219 0.0 1.0 0.12 0.00 1.05 99 1005.7
20260506090501 51 258 0.0 1.0 0.12 0.00 1.04 99 1005.4
20260506085912 51 260 2.0 3.0 0.13 0.00 1.03 99 1005.7
20260506085402 51 229 0.0 2.0 0.14 0.00 1.03 99 1005.3
20260506083832 51 220 1.0 4.0 0.17 0.00 1.00 99 1005.4
20260506083400 51 259 0.0 2.0 0.18 0.00 0.99 99 1005.3
20260506081752 50 221 0.0 1.0 0.21 0.00 0.95 99 1005.4
20260506081320 50 231 1.0 2.0 0.22 0.00 0.94 99 1005.3
20260506073122 50 240 0.0 0.0 0.18 0.00 0.79 99 1005.1
20260506072612 50 224 0.0 1.0 0.17 0.00 0.77 99 1005.1
20260506072140 50 234 0.0 1.0 0.16 0.00 0.75 99 1005.0
20260506071120 50 219 0.0 1.0 0.11 0.00 0.70 99 1005.1
20260506060332 50 221 0.0 1.0 0.05 0.00 0.58 99 1004.7
20260506051229 50 299 1.0 1.0 0.06 0.00 0.54 99 1004.9
20260506050641 50 225 1.0 1.0 0.06 0.00 0.54 99 1004.8
20260506050131 50 220 0.0 1.0 0.07 0.00 0.53 99 1004.9
20260506041542 49 261 1.0 1.0 0.12 0.00 0.48 99 1005.4
20260506041029 49 225 0.0 2.0 0.15 0.00 0.47 99 1005.3
20260506034949 49 229 0.0 3.0 0.20 0.00 0.44 99 1005.4
20260506034442 49 224 0.0 2.0 0.21 0.00 0.43 99 1005.2
20260506033851 49 245 0.0 2.0 0.22 0.00 0.42 99 1005.4
20260506033341 49 233 1.0 2.0 0.23 0.00 0.41 99 1005.5
20260506032831 49 234 1.0 1.0 0.22 0.00 0.39 99 1005.4
20260506031852 49 224 0.0 2.0 0.21 0.00 0.35 99 1005.6
20260506031339 49 234 0.0 1.0 0.20 0.00 0.33 99 1005.7
20260506030751 49 226 1.0 1.0 0.19 0.00 0.31 99 1006.0
20260506030241 49 250 1.0 2.0 0.18 0.00 0.29 99 1005.8
20260506025731 49 231 1.0 2.0 0.16 0.00 0.26 99 1005.8
20260506025221 49 227 0.0 1.0 0.15 0.00 0.24 99 1006.0
20260506024714 49 266 0.0 2.0 0.15 0.00 0.23 99 1006.0
20260506023651 49 259 1.0 2.0 0.12 0.00 0.19 99 1006.0
20260506023219 49 224 0.0 1.0 0.11 0.00 0.17 99 1006.0
20260506021100 50 254 1.0 1.0 0.09 0.00 0.12 99 1006.3
20260506020041 50 274 0.0 4.0 0.07 0.00 0.10 99 1006.3
20260506015020 50 204 1.0 1.0 0.06 0.00 0.08 99 1006.1
20260506014511 50 262 0.0 1.0 0.06 0.00 0.08 99 1006.4
20260506014001 50 239 1.0 2.0 0.06 0.00 0.07 99 1006.3
20260506013454 50 276 1.0 2.0 0.05 0.00 0.06 99 1006.6
20260506012941 50 202 0.0 3.0 0.04 0.00 0.05 99 1006.2
20260506012433 50 213 0.0 1.0 0.04 0.00 0.04 99 1006.5
20260506011920 50 226 1.0 2.0 0.04 0.00 0.04 99 1006.5
20260506011411 50 276 0.0 2.0 0.03 0.00 0.03 99 1006.7
20260506005333 51 207 0.0 1.0 0.02 0.00 0.02 99 1006.8
20260506003800 51 226 1.0 2.0 0.01 0.00 0.01 99 1006.9
20260506002740 51 220 0.0 1.0 0.01 0.00 0.01 99 1006.9
20260506001720 51 227 0.0 1.0 0.00 0.00 0.00 99 1007.2
20260506001210 51 235 1.0 2.0 0.00 0.00 0.00 99 1007.1
20260506000700 51 216 2.0 3.0 0.00 0.00 0.00 99 1007.3
20260505235640 51 244 1.0 1.0 0.00 0.00 0.00 98 1007.5
20260505235209 51 245 2.0 3.0 0.00 0.00 0.00 98 1007.6
20260505234658 51 240 1.0 3.0 0.00 0.00 0.00 98 1007.4
20260505234152 51 228 0.0 1.0 0.00 0.00 0.00 98 1007.5
20260505233216 51 263 1.0 3.0 0.00 0.00 0.00 98 1007.6
20260505232030 51 270 3.0 3.0 0.00 0.00 0.00 97 1007.7
20260505231520 52 234 0.0 1.0 0.00 0.00 0.00 97 1007.5
20260505230500 52 248 2.0 3.0 0.00 0.00 0.00 97 1007.8
20260505225950 52 241 0.0 1.0 0.00 0.00 0.00 97 1007.8
20260505225440 52 259 1.0 2.0 0.00 0.00 0.00 97 1008.0
20260505224933 52 304 2.0 3.0 0.00 0.00 0.00 97 1007.9
20260505224459 52 242 0.0 2.0 0.00 0.00 0.00 97 1007.8
20260505224033 52 231 1.0 2.0 0.00 0.00 0.00 97 1008.0
20260505223400 52 245 1.0 1.0 0.00 0.00 0.00 97 1008.1
20260505222343 53 203 1.0 2.0 0.00 0.00 0.00 97 1008.0
20260505220300 53 238 0.0 3.0 0.00 0.00 0.00 96 1007.9
20260505215750 53 273 2.0 2.0 0.00 0.00 0.08 96 1008.0
20260505214730 53 284 1.0 3.0 0.00 0.00 0.08 96 1007.8
20260505214223 53 225 0.0 1.0 0.00 0.00 0.08 95 1008.1
20260505212650 53 242 1.0 1.0 0.00 0.00 0.08 95 1007.8
20260505212218 53 255 1.0 2.0 0.00 0.00 0.08 95 1008.2
20260505211630 53 231 1.0 2.0 0.00 0.00 0.08 95 1008.4
20260505211159 53 240 1.0 2.0 0.00 0.00 0.08 96 1008.3
20260505210103 53 234 1.0 2.0 0.00 0.00 0.08 95 1008.0
20260505205550 53 229 0.0 6.0 0.00 0.00 0.08 95 1008.2
20260505204533 54 224 0.0 2.0 0.00 0.00 0.08 95 1008.1
20260505204058 54 263 1.0 1.0 0.00 0.00 0.08 95 1008.3
20260505203510 54 264 2.0 3.0 0.00 0.00 0.08 95 1008.2
20260505203000 54 262 1.0 2.0 0.00 0.00 0.08 95 1008.1
20260505202450 54 243 1.0 2.0 0.00 0.00 0.08 95 1008.1
20260505201943 54 246 1.0 2.0 0.00 0.00 0.08 95 1008.2
20260505201430 54 236 1.0 3.0 0.00 0.00 0.08 95 1008.3
20260505200920 54 227 0.0 1.0 0.00 0.00 0.08 95 1008.2
20260505195900 54 247 0.0 1.0 0.00 0.00 0.08 95 1008.3
20260505195350 54 218 1.0 2.0 0.00 0.00 0.08 95 1008.2
20260505194409 55 237 2.0 2.0 0.00 0.00 0.08 94 1008.1
20260505192800 55 216 0.0 3.0 0.00 0.00 0.08 93 1007.9
20260505192412 55 252 1.0 4.0 0.00 0.00 0.08 93 1007.9
20260505191230 56 285 1.0 4.0 0.00 0.00 0.08 93 1008.3
20260505190721 56 227 0.0 1.0 0.00 0.00 0.08 93 1008.0
20260505190210 56 181 1.0 3.0 0.00 0.00 0.08 93 1008.1
20260505185700 56 236 1.0 2.0 0.00 0.00 0.08 92 1007.9
20260505185228 56 230 0.0 1.0 0.00 0.00 0.08 92 1008.0
20260505184130 57 298 1.0 2.0 0.00 0.00 0.08 92 1007.8
20260505183147 57 237 0.0 2.0 0.00 0.00 0.08 91 1007.6
20260505180519 59 255 2.0 2.0 0.00 0.00 0.08 89 1008.0
20260505180009 59 209 0.0 2.0 0.00 0.00 0.08 88 1008.0
20260505175537 59 275 1.0 1.0 0.00 0.00 0.08 88 1008.1
20260505175028 60 334 2.0 3.0 0.00 0.00 0.08 87 1007.9
20260505174439 60 233 0.0 1.0 0.00 0.00 0.08 87 1007.7
20260505173419 60 286 2.0 3.0 0.00 0.00 0.08 87 1008.0
20260505172912 60 281 0.0 3.0 0.00 0.00 0.08 87 1008.0
20260505172359 60 225 0.0 1.0 0.00 0.00 0.08 86 1008.0
20260505171339 61 220 2.0 3.0 0.00 0.00 0.08 85 1008.2
20260505170357 61 315 2.0 3.0 0.00 0.00 0.08 84 1007.6
20260505165813 62 226 0.0 2.0 0.00 0.00 0.08 84 1007.7
20260505165259 62 203 0.0 1.0 0.00 0.00 0.08 84 1007.8
20260505164239 62 219 0.0 2.0 0.00 0.00 0.08 84 1008.0
20260505163729 62 276 2.0 3.0 0.00 0.00 0.08 84 1007.8
20260505162712 62 210 0.0 3.0 0.00 0.00 0.08 84 1007.7
20260505161652 62 308 2.0 2.0 0.00 0.00 0.08 84 1008.0
20260505161139 62 240 1.0 3.0 0.00 0.00 0.08 84 1008.1
20260505160629 62 230 1.0 2.0 0.00 0.00 0.08 83 1008.2
20260505160158 63 218 1.0 2.0 0.00 0.00 0.08 82 1008.1
20260505153019 64 242 1.0 1.0 0.00 0.00 0.08 77 1008.1
20260505152547 65 227 0.0 1.0 0.00 0.00 0.08 78 1008.2
20260505152002 65 220 0.0 1.0 0.00 0.00 0.08 77 1008.1
20260505151449 66 247 1.0 2.0 0.00 0.00 0.08 76 1008.2
20260505150942 66 248 1.0 1.0 0.00 0.00 0.08 74 1008.1
20260505140229 68 248 1.0 2.0 0.00 0.00 0.08 74 1008.3